Location: Moscow
(55.7500°N, 37.5830°E)
Time: 19:46:03
(UTC+03:00)

Explorer 7 - Pass Details

Date: 04 December 2021
Orbit: 483 x 674 km, 50.3° (Epoch: 19 January)

Event Time Altitude Azimuth Distance (km) Brightness Sun altitude
Rises 06:38:26 0° 218° (SW) 2,800 10.2 -15.7°
Reaches altitude 10° 06:41:11 10° 202° (SSW) 1,863 9.5 -15.3°
Maximum altitude 06:44:21 21° 154° (SSE) 1,275 9.2 -14.9°
Drops below altitude 10° 06:47:24 10° 104° (ESE) 1,782 10.9 -14.5°
Sets 06:49:57 0° 88° (E) 2,640 11.7 -14.2°
